Location: Hamilton
(37.7830°S, 175.2830°E)
Time: 00:28:47
(UTC+13:00)

Resurs 01 Rocket - Pass Details

Date: 24 January 2019
Orbit: 635 x 643 km, 98.1° (Epoch: 22 February)

Event Time Altitude Azimuth Distance (km) Brightness Sun altitude
Rises 21:36:51 0° 155° (SSE) 2,974 5.2 -10.8°
Reaches altitude 10° 21:39:22 10° 143° (SE) 2,054 4.2 -11.2°
Maximum altitude 21:43:11 27° 84° (E) 1,229 2.6 -11.9°
Enters shadow 21:45:44 17° 36° (NE) 1,639 3.1 -12.3°
